Find Starlink 36041

NORAD ID: 66798 Int'l Des: 2025-278 Owner: SPXS Country: US Constellation: starlink operational
LEOCIRCULAR

Current View

Loading 3D Globe...

About Starlink 36041

Description loading...

Upcoming Passes

Passes for default location (London). Set your location on the main map for personalized predictions.

Altitude History

Loading altitude history...

Two-Line Element Set

1 66798U 25278H 26146.41678049 .00011715 00000-0 43440-3 0 9991
2 66798 43.0067 35.6437 0001029 263.5221 96.5513 15.27591741 27098
Epoch: May 26, 2026 • Age: 9 hours

Current Status

Altitude 491.3 km
Velocity 7.62 km/s
Sub-Earth Point -32.16°S, 179.07°E
Launch Date Dec 1, 2025
Age 0.4 years
Type internet

Technical Details

Classification Payload
Mass 575.00 kg
Dry Mass 530.00 kg
Total Mass 575.00 kg
Length 0.30 m
Diameter 4.10 m
Span 29.00 m
Shape Box + pan
Manufacturer SPXS
Bus Type Starlink V2MO
Phase Status In Orbit
Owner/State SPXS/US

Most Searched